CZ-6A DEB, 54530

Orbit data source: Space-Track

CZ-6A DEB, 54530 is space debris in SSO originally from a launch on Fri, 11 Nov 2022 UTC launched from the Taiyaun Space Center, China (TSC). Debris objects in space refer to the collection of defunct objects orbiting the Earth. Examples of debris include non-operational satellites, rocket bodies, and fragments generated from explosions, collisions, or faulty payload assembly.

Loading next visibility...
Identifier
54530, 2022-151KJ
Orbit
SSO
Country
Flag of CNCN / PRC
Related business
Manufacturer
SAST
Mission
Spacecraft
Bus & Motor
Unknown
Mass
Unknown
Launch date (UTC)
2022-11-11 (4 years ago)
Launch vehicle
Unknown
Launch site
Taiyaun Space Center, China (TSC)
Object type
Payload
Rocket body
Debris
Shape & HBR
Unknown shape, 0.2 m
Radar Cross Section
Medium (>0.1 m² and <1 m²)

Expand to show TLE details & history
Last TLE update: 19 hours ago

TLE from 19 hours ago
0 CZ-6A DEB
1 54530U 22151KJ  26235.99928478  .00000096  00000-0  75529-4 0  9999
2 54530  98.8289 239.3284 0033323 120.0648 240.3835 14.12361790194620
Epoch: 2026-08-23T23:58Z
TLE epoch observation values (Epoch: 2026-08-23T23:58:58.204Z)
Latitude
-0.00005°
Longitude
-92.7014°
Altitude
866.17 km
Speed
7.413 km/s
True Right ascension
15h 57m 18s
True Declination
0° 00' 00"
Sunlit
Object was in daylight at epoch
Visualization orbit readout
Latitude
Unknown
Longitude
Unknown
Altitude
Unknown
Speed
Unknown
Apparent Right ascension
Unknown
Apparent Declination
Unknown
Sunlit
N/A
Visualization observer readout
Local Sidereal Time
10:15:47
Azimuth
Unknown
Elevation
Unknown
Doppler factor
Unknown
Orbital elements
Apogee altitude
872.557 km
Perigee altitude
824.394 km
Semi-major axis
7,226.612 km
Eccentricity
0.00333
Inclination
98.8289°
RAAN
239.3284°
Arg. of periapsis
120.0648°
True anomaly
240.05222°
Mean anomaly
240.3835°
Eccentric anomaly
240.21779°
Mean motion
3.53298 °/min
Orbital period
101.9 mins
BSTAR
0.000075529
Loading maneuver chart data...
Computing Atmospheric mass density...

Documentation

Showing up to 5 results
|